FW7124 Weather Reports


time (UTC)temp
C
wind
direction
speed
KPH
gust
KPH
rain 1hr
cm
rain 24hr
cm
rain mn
cm
humidity
%
barometer
mb
20260506051315 8 340 0.0 3.2 0.00 0.00 0.00 82 1014.0
20260506050318 8 5 1.6 3.2 0.00 0.00 0.00 82 1013.9
20260506044315 8 350 0.0 4.8 0.00 0.00 0.00 83 1013.8
20260506042754 8 35 0.0 3.2 0.00 0.00 0.00 82 1013.8
20260506041312 8 35 0.0 3.2 0.00 0.00 0.00 82 1013.9
20260506040311 8 42 0.0 3.2 0.00 0.00 0.00 83 1013.8
20260506035309 8 42 0.0 3.2 0.00 0.00 0.00 84 1013.8
20260506034310 8 345 0.0 1.6 0.00 0.00 0.00 83 1013.7
20260506033307 8 323 0.0 0.0 0.00 0.00 0.00 83 1013.7
20260506032307 8 323 0.0 0.0 0.00 0.00 0.00 83 1013.7
20260506031306 9 323 0.0 0.0 0.00 0.00 0.00 84 1013.7
20260506030304 9 323 0.0 0.0 0.00 0.00 0.00 84 1013.7
20260506025310 9 319 0.0 0.0 0.00 0.00 0.00 84 1013.6
20260506024306 9 338 0.0 0.0 0.00 0.00 0.00 83 1013.7
20260506023303 9 338 0.0 0.0 0.00 0.00 0.00 83 1013.7
20260506022754 9 341 0.0 0.0 0.00 0.00 0.00 83 1013.7
20260506021305 9 348 0.0 0.0 0.00 0.00 0.00 83 1013.8
20260506020750 9 348 0.0 0.0 0.00 0.00 0.00 83 1013.9
20260506015305 9 348 0.0 0.0 0.00 0.00 0.00 83 1013.9
20260506014259 9 348 0.0 0.0 0.00 0.00 0.00 82 1013.9
20260506013303 9 348 0.0 0.0 0.00 0.00 0.00 82 1013.8
20260506012258 9 346 0.0 0.0 0.00 0.00 0.00 82 1013.9
20260506011259 10 346 0.0 0.0 0.00 0.00 0.00 81 1013.9
20260506010258 10 346 0.0 0.0 0.00 0.00 0.00 81 1013.9
20260506005300 10 355 0.0 0.0 0.00 0.00 0.00 80 1013.9
20260506004259 10 11 0.0 3.2 0.00 0.00 0.00 78 1013.9
20260506003258 10 5 0.0 3.2 0.00 0.00 0.00 78 1014.0
20260506002258 10 355 0.0 4.8 0.00 0.00 0.00 78 1014.0
20260506001254 10 294 0.0 4.8 0.00 0.00 0.00 77 1013.9
20260506000733 10 350 0.0 4.8 0.00 0.00 0.00 78 1013.9
20260505235252 10 5 0.0 4.8 0.00 0.00 0.00 78 1014.0
20260505234252 11 355 1.6 4.8 0.00 0.00 0.00 77 1014.0
20260505233253 11 24 1.6 4.8 0.00 0.00 0.00 77 1013.9
20260505232251 11 28 1.6 6.4 0.00 0.00 0.00 77 1013.9
20260505231251 11 22 1.6 8.0 0.00 0.00 0.00 76 1013.8
20260505230724 11 355 1.6 3.2 0.00 0.00 0.00 76 1013.9
20260505224249 11 42 0.0 3.2 0.00 0.00 0.00 75 1013.8
20260505223250 11 11 0.0 3.2 0.00 0.00 0.00 75 1013.8
20260505222250 11 331 0.0 3.2 0.00 0.00 0.00 75 1013.8
20260505221249 11 12 0.0 1.6 0.00 0.00 0.00 76 1013.9
20260505220727 12 22 0.0 3.2 0.00 0.00 0.00 76 1013.8
20260505215736 12 18 0.0 3.2 0.00 0.00 0.00 75 1013.8
20260505214241 12 5 0.0 4.8 0.00 0.00 0.00 76 1013.8
20260505213241 12 355 0.0 4.8 0.00 0.00 0.00 75 1013.8
20260505212239 12 56 0.0 0.0 0.00 0.00 0.00 76 1013.8
20260505211237 12 56 0.0 0.0 0.00 0.00 0.00 76 1013.7
20260505210235 12 56 0.0 3.2 0.00 0.00 0.00 75 1013.7
20260505205232 12 56 0.0 3.2 0.00 0.00 0.00 73 1013.6
20260505204232 12 74 0.0 3.2 0.00 0.00 0.00 73 1013.6
20260505203230 12 36 0.0 3.2 0.00 0.00 0.00 74 1013.6
20260505202231 12 55 0.0 4.8 0.00 0.00 0.00 73 1013.5
20260505200230 12 315 0.0 3.2 0.00 0.00 0.00 75 1013.4
20260505195230 12 316 0.0 4.8 0.00 0.00 0.00 73 1013.3
20260505194230 12 278 0.0 4.8 0.00 0.00 0.00 74 1013.3
20260505193226 12 104 0.0 3.2 0.00 0.00 0.00 75 1013.1
20260505192709 13 32 0.0 3.2 0.00 0.00 0.00 74 1013.2
20260505191227 13 101 0.0 3.2 0.00 0.00 0.00 73 1013.1
20260505190226 13 82 0.0 3.2 0.00 0.00 0.00 72 1013.0
20260505185657 13 314 0.0 0.0 0.00 0.00 0.00 74 1012.9
20260505184222 13 336 0.0 0.0 0.00 0.00 0.00 73 1012.9
20260505183220 13 336 0.0 0.0 0.00 0.00 0.00 73 1012.9
20260505182221 13 336 0.0 1.6 0.00 0.00 0.00 72 1012.8
20260505181222 13 325 0.0 1.6 0.00 0.00 0.00 72 1012.8
20260505180220 13 309 0.0 3.2 0.00 0.00 0.00 72 1012.9
20260505175219 13 134 0.0 9.7 0.00 0.00 0.00 72 1012.8
20260505174215 13 355 0.0 9.7 0.00 0.00 0.00 71 1012.8
20260505173215 13 22 0.0 3.2 0.00 0.00 0.00 71 1012.8
20260505172215 13 350 0.0 1.6 0.00 0.00 0.00 72 1012.9
20260505171214 13 350 0.0 1.6 0.00 0.00 0.00 72 1012.9
20260505170208 13 350 0.0 3.2 0.00 0.00 0.00 71 1013.0
20260505165208 14 350 0.0 3.2 0.00 0.00 0.00 71 1013.0
20260505164208 14 350 0.0 3.2 0.00 0.00 0.00 70 1012.9
20260505163209 14 52 0.0 3.2 0.00 0.00 0.00 71 1013.0
20260505162209 14 250 0.0 3.2 0.00 0.00 0.00 70 1013.0
20260505161208 14 53 0.0 3.2 0.00 0.00 0.00 72 1013.0
20260505160212 14 72 0.0 0.0 0.00 0.00 0.00 70 1013.1
20260505153207 14 66 0.0 1.6 0.00 0.00 0.00 71 1013.1
20260505152206 14 71 0.0 1.6 0.00 0.00 0.00 71 1013.1
20260505151208 14 355 0.0 3.2 0.00 0.00 0.00 71 1013.2
20260505150206 14 11 0.0 3.2 0.00 0.00 0.00 70 1013.1
20260505140639 14 82 0.0 1.6 0.00 0.00 0.00 70 1013.3
20260505130203 13 321 0.0 1.6 0.00 0.00 0.00 72 1013.6
20260505124202 13 63 0.0 3.2 0.00 0.00 0.00 74 1013.6
20260505123202 13 0 0.0 0.0 0.00 0.00 0.00 71 1013.5
20260505122652 13 17 0.0 4.8 0.00 0.00 0.00 72 1013.5
20260505121202 13 5 1.6 4.8 0.00 0.00 0.00 71 1013.5
20260505120202 13 342 0.0 4.8 0.00 0.00 0.00 73 1013.6
20260505115202 13 18 1.6 4.8 0.00 0.00 0.00 72 1013.4
20260505114202 14 298 0.0 3.2 0.00 0.00 0.00 74 1013.6
20260505113202 13 329 0.0 1.6 0.00 0.00 0.00 77 1013.5
20260505112202 13 338 0.0 3.2 0.00 0.00 0.00 77 1013.7
20260505111202 13 346 0.0 3.2 0.00 0.00 0.00 77 1013.8
20260505110203 13 92 0.0 3.2 0.00 0.00 0.00 77 1013.8
20260505101636 13 20 0.0 3.2 0.00 0.00 0.00 79 1014.1
20260505100153 12 53 0.0 4.8 0.00 0.00 0.00 78 1014.1
20260505095152 12 0 0.0 3.2 0.00 0.00 0.00 77 1014.1
20260505094152 12 5 0.0 3.2 0.00 0.00 0.00 80 1014.2
20260505093151 12 344 0.0 3.2 0.00 0.00 0.00 80 1014.4
20260505092151 12 9 0.0 3.2 0.00 0.00 0.00 80 1014.4
20260505091635 12 348 0.0 4.8 0.00 0.00 0.00 81 1014.4
20260505090639 12 341 0.0 4.8 0.00 0.00 0.00 80 1014.3
20260505085152 12 105 0.0 0.0 0.00 0.00 0.00 82 1014.3
20260505084149 11 14 0.0 0.0 0.00 0.00 0.00 85 1014.5
20260505083149 11 30 0.0 0.0 0.00 0.00 0.00 85 1014.5
20260505082150 11 30 0.0 0.0 0.00 0.00 0.00 85 1014.6
20260505081146 11 30 0.0 0.0 0.00 0.00 0.00 84 1014.6
20260505080142 11 34 0.0 0.0 0.00 0.00 0.00 83 1014.6
20260505075638 11 21 0.0 0.0 0.00 0.00 0.00 84 1014.4
20260505074145 11 349 0.0 0.0 0.00 0.00 0.00 86 1014.3
20260505073139 11 19 0.0 0.0 0.00 0.00 0.00 86 1014.3
20260505072139 11 71 0.0 0.0 0.00 0.00 0.00 87 1014.5
20260505071139 11 0 0.0 0.0 0.00 0.00 0.00 88 1014.6
20260505070141 10 13 0.0 0.0 0.00 0.00 0.00 88 1014.6
20260505065138 10 5 0.0 0.0 0.00 0.00 0.00 89 1014.7
20260505064136 10 5 0.0 0.0 0.00 0.00 0.00 91 1014.6
20260505063135 10 23 0.0 0.0 0.00 0.00 0.00 92 1014.6
20260505062136 9 42 0.0 0.0 0.00 0.00 0.00 92 1014.5
20260505061619 9 42 0.0 0.0 0.00 0.00 0.00 92 1014.5
20260505060137 9 42 0.0 0.0 0.00 0.00 0.00 92 1014.5
20260505055135 9 42 0.0 0.0 0.00 0.00 0.00 92 1014.7
20260505054141 8 42 0.0 0.0 0.00 0.00 0.00 92 1014.5
20260505053135 8 42 0.0 0.0 0.00 0.00 0.00 91 1014.7
20260505052133 9 42 0.0 0.0 0.00 0.00 0.00 91 1014.7